TimeCST,TemperatureF,Dew PointF,Humidity,Sea Level PressureIn,VisibilityMPH,Wind Direction,Wind SpeedMPH,Gust SpeedMPH,PrecipitationIn,Events,Conditions,WindDirDegrees,DateUTC
12:17 AM,2.1,-2.2,82,30.25,5.0,WNW,9.2,-,N/A,Snow,Light Snow,290,2013-12-23 06:17:00
12:37 AM,1.2,-3.1,82,30.25,5.0,WNW,12.7,-,N/A,Snow,Light Snow,290,2013-12-23 06:37:00
12:57 AM,0.9,-3.1,83,30.25,2.5,WNW,10.4,16.1,N/A,Snow,Light Snow,290,2013-12-23 06:57:00
1:16 AM,0.5,-3.6,83,30.26,3.0,WNW,11.5,-,N/A,Snow,Light Snow,290,2013-12-23 07:16:00
1:37 AM,0.1,-4.0,83,30.26,2.5,WNW,10.4,16.1,N/A,Snow,Light Snow,300,2013-12-23 07:37:00
1:56 AM,-0.4,-4.4,83,30.26,4.0,WNW,10.4,-,N/A,Snow,Light Snow,290,2013-12-23 07:56:00
2:17 AM,-0.8,-4.9,83,30.27,5.0,WNW,10.4,16.1,N/A,,Overcast,290,2013-12-23 08:17:00
2:37 AM,-0.9,-5.1,83,30.27,4.0,WNW,10.4,-,N/A,,Overcast,300,2013-12-23 08:37:00
2:56 AM,-0.9,-5.1,83,30.28,5.0,WNW,9.2,-,N/A,Snow,Light Snow,300,2013-12-23 08:56:00
3:17 AM,-0.9,-5.3,82,30.29,7.0,WNW,11.5,-,N/A,,Overcast,300,2013-12-23 09:17:00
3:36 AM,-1.3,-6.0,81,30.29,10.0,WNW,9.2,-,N/A,,Overcast,300,2013-12-23 09:36:00
3:57 AM,-2.2,-6.7,81,30.30,10.0,WNW,9.2,-,N/A,,Overcast,290,2013-12-23 09:57:00
4:16 AM,-3.5,-8.0,81,30.30,10.0,WNW,9.2,-,N/A,,Overcast,290,2013-12-23 10:16:00
4:37 AM,-4.5,-9.4,80,30.30,10.0,WNW,8.1,-,N/A,,Scattered Clouds,290,2013-12-23 10:37:00
4:57 AM,-4.9,-9.4,81,30.31,10.0,WNW,6.9,-,N/A,,Clear,290,2013-12-23 10:57:00
5:17 AM,-4.9,-9.0,82,30.31,10.0,WNW,8.1,-,N/A,,Scattered Clouds,300,2013-12-23 11:17:00
5:37 AM,-4.0,-8.5,81,30.31,10.0,WNW,10.4,-,N/A,,Scattered Clouds,300,2013-12-23 11:37:00
5:56 AM,-4.0,-8.5,81,30.32,10.0,NW,6.9,-,N/A,,Mostly Cloudy,310,2013-12-23 11:56:00
6:17 AM,-4.0,-8.7,80,30.33,10.0,NW,8.1,-,N/A,,Overcast,310,2013-12-23 12:17:00
6:37 AM,-4.0,-8.7,80,30.34,10.0,NW,6.9,-,N/A,,Overcast,310,2013-12-23 12:37:00
6:57 AM,-4.0,-8.9,80,30.34,10.0,NW,9.2,-,N/A,,Overcast,310,2013-12-23 12:57:00
7:16 AM,-4.4,-9.4,79,30.35,10.0,WNW,9.2,-,N/A,,Overcast,300,2013-12-23 13:16:00
7:37 AM,-4.9,-9.6,80,30.36,5.0,NW,6.9,-,N/A,Snow,Light Snow,310,2013-12-23 13:37:00
7:57 AM,-4.5,-9.8,78,30.37,7.0,NW,12.7,-,N/A,,Overcast,320,2013-12-23 13:57:00
8:16 AM,-4.9,-10.3,78,30.37,3.0,NW,11.5,18.4,N/A,,Haze,320,2013-12-23 14:16:00
8:37 AM,-5.1,-10.7,77,30.38,4.0,NW,12.7,-,N/A,,Haze,320,2013-12-23 14:37:00
8:57 AM,-5.3,-11.0,76,30.39,5.0,NNW,11.5,-,N/A,,Haze,330,2013-12-23 14:57:00
9:17 AM,-5.4,-11.2,76,30.40,5.0,NW,10.4,-,N/A,,Haze,320,2013-12-23 15:17:00
9:37 AM,-4.9,-10.7,76,30.40,5.0,NW,9.2,-,N/A,Snow,Light Snow,320,2013-12-23 15:37:00
9:56 AM,-4.4,-10.8,74,30.41,10.0,NW,10.4,-,N/A,,Mostly Cloudy,320,2013-12-23 15:56:00
10:17 AM,-4.0,-11.0,72,30.41,10.0,NW,11.5,16.1,N/A,,Clear,320,2013-12-23 16:17:00
10:37 AM,-4.0,-11.2,71,30.42,10.0,NW,10.4,17.3,N/A,,Clear,320,2013-12-23 16:37:00
10:56 AM,-3.5,-11.2,69,30.42,10.0,NW,9.2,-,N/A,,Clear,320,2013-12-23 16:56:00
11:17 AM,-2.6,-10.7,68,30.42,10.0,NW,9.2,-,N/A,,Scattered Clouds,320,2013-12-23 17:17:00
11:37 AM,-2.6,-10.7,68,30.42,7.0,NW,11.5,-,N/A,,Mostly Cloudy,310,2013-12-23 17:37:00
11:56 AM,-2.2,-10.3,68,30.42,7.0,NW,11.5,-,N/A,,Overcast,320,2013-12-23 17:56:00
12:17 PM,-2.4,-10.1,70,30.42,5.0,NNW,12.7,18.4,N/A,,Haze,330,2013-12-23 18:17:00
12:36 PM,-2.2,-10.3,68,30.42,5.0,NW,11.5,-,N/A,,Haze,310,2013-12-23 18:36:00
12:57 PM,-2.2,-10.3,68,30.41,10.0,NW,9.2,17.3,N/A,,Clear,320,2013-12-23 18:57:00
1:17 PM,-2.4,-10.5,68,30.41,10.0,NW,8.1,-,N/A,,Clear,310,2013-12-23 19:17:00
1:36 PM,-2.0,-10.3,68,30.41,10.0,WNW,9.2,-,N/A,,Scattered Clouds,300,2013-12-23 19:36:00
1:57 PM,-2.2,-10.8,67,30.42,10.0,NW,9.2,-,N/A,,Scattered Clouds,310,2013-12-23 19:57:00
2:17 PM,-2.2,-11.0,66,30.42,10.0,WNW,12.7,-,N/A,,Scattered Clouds,300,2013-12-23 20:17:00
2:37 PM,-1.5,-10.5,66,30.42,10.0,WNW,9.2,-,N/A,,Mostly Cloudy,300,2013-12-23 20:37:00
2:56 PM,-1.3,-10.5,65,30.42,10.0,NW,9.2,-,N/A,,Overcast,310,2013-12-23 20:56:00
3:17 PM,-1.3,-10.3,66,30.43,10.0,WNW,6.9,-,N/A,,Overcast,290,2013-12-23 21:17:00
3:37 PM,-2.0,-10.5,67,30.43,10.0,NW,4.6,-,N/A,,Mostly Cloudy,310,2013-12-23 21:37:00
3:57 PM,-2.6,-11.2,67,30.44,10.0,WNW,4.6,-,N/A,,Scattered Clouds,300,2013-12-23 21:57:00
4:17 PM,-2.4,-11.2,66,30.44,10.0,NW,4.6,-,N/A,,Clear,310,2013-12-23 22:17:00
4:37 PM,-3.1,-11.4,68,30.45,10.0,NW,4.6,-,N/A,,Clear,320,2013-12-23 22:37:00
4:56 PM,-4.0,-12.1,68,30.46,10.0,WNW,5.8,-,N/A,,Clear,290,2013-12-23 22:56:00
5:17 PM,-4.7,-12.5,69,30.46,10.0,NW,5.8,-,N/A,,Clear,310,2013-12-23 23:17:00
5:36 PM,-4.9,-13.0,68,30.47,10.0,WNW,5.8,-,N/A,,Clear,290,2013-12-23 23:36:00
5:57 PM,-5.8,-13.2,70,30.48,10.0,WNW,5.8,-,N/A,,Scattered Clouds,290,2013-12-23 23:57:00
6:16 PM,-5.8,-13.5,69,30.48,10.0,WNW,5.8,-,N/A,,Mostly Cloudy,300,2013-12-24 00:16:00
6:37 PM,-6.3,-13.9,70,30.48,10.0,WNW,5.8,-,N/A,,Scattered Clouds,290,2013-12-24 00:37:00
6:57 PM,-6.5,-13.9,70,30.48,10.0,WNW,6.9,-,N/A,,Clear,290,2013-12-24 00:57:00
7:17 PM,-6.5,-13.9,70,30.49,10.0,WNW,6.9,-,N/A,,Clear,290,2013-12-24 01:17:00
7:36 PM,-6.9,-14.3,70,30.49,10.0,WNW,5.8,-,N/A,,Clear,290,2013-12-24 01:36:00
7:57 PM,-7.1,-14.1,72,30.49,10.0,West,4.6,-,N/A,,Clear,280,2013-12-24 01:57:00
8:17 PM,-7.8,-14.6,72,30.49,10.0,West,3.5,-,N/A,,Clear,280,2013-12-24 02:17:00
8:37 PM,-8.7,-14.8,75,30.49,10.0,Calm,Calm,-,N/A,,Clear,0,2013-12-24 02:37:00
8:57 PM,-9.6,-15.2,76,30.49,10.0,Calm,Calm,-,N/A,,Clear,0,2013-12-24 02:57:00
9:17 PM,-10.7,-15.3,80,30.49,10.0,West,4.6,-,N/A,,Clear,270,2013-12-24 03:17:00
9:36 PM,-10.3,-15.9,76,30.48,10.0,Calm,Calm,-,N/A,,Clear,0,2013-12-24 03:36:00
9:57 PM,-11.7,-17.1,77,30.47,10.0,Calm,Calm,-,N/A,,Clear,0,2013-12-24 03:57:00
10:17 PM,-14.1,-18.9,79,30.48,10.0,West,4.6,-,N/A,,Clear,270,2013-12-24 04:17:00
10:37 PM,-13.2,-18.2,78,30.47,10.0,Calm,Calm,-,N/A,,Clear,0,2013-12-24 04:37:00
10:56 PM,-13.2,-17.9,80,30.47,10.0,West,3.5,-,N/A,,Clear,270,2013-12-24 04:56:00
11:17 PM,-13.0,-17.9,79,30.46,10.0,Calm,Calm,-,N/A,,Clear,0,2013-12-24 05:17:00
11:37 PM,-14.1,-19.3,77,30.46,10.0,Calm,Calm,-,N/A,,Clear,0,2013-12-24 05:37:00
11:57 PM,-14.1,-19.3,77,30.46,10.0,Calm,Calm,-,N/A,,Clear,0,2013-12-24 05:57:00